Content
SEND FEEDBACK

Daily
Averages
Monthly
Summary
United States of America

NEW YORK - UPPER EAST SIDE, NEW YORK


Home > North America > United States > New York
Elevation: 132 feet     Latitude: 40 47N     Longitude: 073 58W

WEATHER
 
SELECT A DAY
Number of Records: 148,039;   Date Range: 11/1/95 - 7/23/14
 
SHARE

PRINT THIS DATA

[ ← Previous Day ]
WEATHER ALMANAC - MARCH 21, 2014
[ Next Day → ]
[ °C ]   °F
Weather ElementAverageHighLow
Temperature44.5 °F51.1 °F (3:51 pm)39 °F (5:51 am)
Dewpoint17.7 °F19 °F (1:51 am)16 °F (4:51 pm)
Humidity35 %45 % (5:51 am)25 % (4:51 pm)
Barometer29.97 in30.06 in (9:51 pm)29.91 in (1:51 am)
Wind Speed7.5 mph13.8 mph (4:51 am)
Wind Gust25.3 mph (4:51 am)
Weather ElementAverage
Visibility10 mi
Wind DirectionSSE (164.8 °)

Weather ElementTotal
Precipitation---
Heating Degree Days20 (Base 65)
Averaged from 23 records on March 21, 2014
WEATHER CONDITIONS BREAKOUT
WIND DIRECTION BREAKOUT
WEATHER BY HOUR - MARCH 21, 2014
[ °C ]   °F
Local TimeTemperatureDewpointHumidityBarometerVisibilityWind DirectionWind SpeedGust SpeedPrecipitationEventsConditions
1:51 AM39.9 °F19.0 °F43 %29.91 in10.0 miWNW (290°)9.2 mph18.4 mphPartly Cloudy
2:51 AM39.9 °F18.0 °F41 %29.91 in10.0 miWest (280°)12.7 mph23.0 mphOvercast
3:51 AM39.9 °F18.0 °F41 %29.91 in10.0 miWest (280°)8.1 mph20.7 mphOvercast
4:51 AM39.9 °F18.0 °F41 %29.93 in10.0 miWNW (300°)13.8 mph25.3 mphOvercast
5:51 AM39.0 °F19.0 °F45 %29.94 in10.0 miNorthOvercast
6:51 AM39.0 °F19.0 °F45 %29.95 in10.0 miVariable4.6 mphOvercast
7:51 AM39.0 °F18.0 °F43 %29.96 in10.0 miWNW (290°)10.4 mph20.7 mphPartly Cloudy
8:51 AM39.9 °F19.0 °F43 %29.98 in10.0 miWest (270°)6.9 mphMostly Cloudy
9:51 AM41.0 °F18.0 °F40 %29.97 in10.0 miNorthClear
10:51 AM43.0 °F19.0 °F38 %29.98 in10.0 miWest (280°)6.9 mphClear
11:51 AM46.0 °F18.0 °F33 %29.98 in10.0 miWNW (290°)11.5 mph18.4 mphClear
12:51 PM46.9 °F18.0 °F32 %29.97 in10.0 miNW (310°)9.2 mph19.6 mphClear
1:51 PM48.9 °F18.0 °F29 %29.96 in10.0 miWest (270°)9.2 mph17.3 mphClear
2:51 PM50.0 °F17.1 °F27 %29.96 in10.0 miWNW (290°)11.5 mph18.4 mphClear
3:51 PM51.1 °F17.1 °F26 %29.96 in10.0 miWNW (290°)4.6 mph18.4 mphClear
4:51 PM51.1 °F16.0 °F25 %29.96 in10.0 miWest (270°)11.5 mph21.9 mphClear
5:51 PM51.1 °F16.0 °F25 %29.98 in10.0 miNorthClear
6:51 PM50.0 °F16.0 °F26 %30.00 in10.0 miVariable6.9 mph17.3 mphClear
7:51 PM48.0 °F17.1 °F29 %30.01 in10.0 miVariable3.5 mphClear
8:51 PM46.9 °F17.1 °F30 %30.04 in10.0 miCalmClear
9:51 PM45.0 °F17.1 °F33 %30.06 in10.0 miCalmClear
10:51 PM44.1 °F17.1 °F34 %30.04 in10.0 miNE (40°)5.8 mphClear
11:51 PM43.0 °F17.1 °F35 %30.06 in10.0 miNE (40°)4.6 mphClear
Hourly data recorded from KNYC, located miles away from New York - Upper East Side, New York







STORIES FROM OUR PARTNERS